Powrót do katalogu

STARLINK-2590

AktywnyŁącznośćVLEO
NORAD 48397·PAYLOAD·🇺🇸 United States

Wystrzelony May 4, 2021 z Cape Canaveral Space Force Station

Loading…

Następne Przeloty (najbliższe 24 godziny)

TLE

ŚwieżeSource: CelesTrak SupGP

Epoka: Sep 15, 2026, 00:57 UTC

1 48397C 21038AW  26258.04006944 -.00012065  00000+0 -38805-3 0  2585
2 48397  53.1592 171.4468 0001377  86.4869 330.9501 15.31703283    13

Śledź STARLINK-2590 w czasie rzeczywistym z AllMySat

Download on the App Store